Location: *
(51.4660°N, 0.3360°W)
Time: 14:01:52
(UTC+00:00)

SL-16 R/B - Pass Details

Date: 19 September 2019
Orbit: 840 x 849 km, 71.0° (Epoch: 15 October)

Event Time Altitude Azimuth Distance (km) Brightness Sun altitude
Rises 19:55:45 0° 330° (NNW) 3,417 6.3 -17.1°
Reaches altitude 10° 19:58:13 10° 332° (NNW) 2,479 5.4 -17.5°
Maximum altitude 20:03:55 71° 57° (ENE) 898 2.2 -18.3°
Enters shadow 20:06:38 32° 134° (SE) 1,427 2.8 -18.6°
